星链-67697(STARLINK-67697)

导读

STARLINK-67697是由美国于2026年2月7日发射的卫星,归属SpaceX星链卫星互联网星座,星链星座旨在为全球用户提供低延迟、高速率的宽带互联网覆盖。该卫星延续星链星座批量部署思路,借助星链组网架构,将进一步补全球覆盖密度,提升服务稳定性与容量,支撑星链服务全球各地区网络接入需求。

基本信息
目录编号:
67697
目录名称:
STARLINK-36704
国际标识:
2026-025E
轨道中心:
EARTH
卫星名称:
星链-67697
卫星全名:
星链-67697(STARLINK-67697)
卫星状态:
在轨 (已飞行210 天)
发射日期:
2026-02-07 UTC
国别 :
美国 (US)
星等 :
--
轨道信息
数据来源 国际轨道数据
星历时间: 2026-09-05T02:05:25+0800
11小时前
查看轨道信息
半长轴: 6843.71km
偏心率: 0.0000197
轨道倾角: 97.284°
近地点辐角 135.181°
升交点赤经 357.891°
平近点角 224.945°
近地点: 465.438km
远地点: 465.708km
周期: 93.907分钟
每日圈数: 15.334351
详细信息
固有亮度:
5
最大亮度:
2.5
卫星平台:
Starlink V1.0
覆盖范围:
全球
运营商:
太空探索技术公司
运营商所在国:
美国
制造商(研发单位):
太空探索技术公司
制造商所在国:
美国
使用方式:
暂无
卫星简介
Starlink 计划是 SpaceX 推出的全球卫星互联网项目,通过发射低轨道卫星,为全球尤其是偏远地区提供高速、低延迟的互联网服务。自 2019 年起,Starlink 已部署数千颗卫星,旨在缩小全球数字鸿沟,推动互联网普及。该项目还为军事、航空等行业提供通信支持,带来广泛经济效益。
2D轨道图
3D轨道图
轨道高度分析图
轨道倾角分析图
轨道综合分析图
查看轨道综合分析图
交会数据列表
事件ID 空间交会对象 最接近时刻(TCA) 交会距离 交会风险概率(CRP) 交会风险指数(CRI) 操作
CDM_260905-073705-180906-769723
2026-09-05T
07:37:45+0000
1.744 km
极远距离
3.809402E-6 低风险 0.47
CDM_260906-111205-504506-769722
2026-09-06T
11:12:43+0000
1.495 km
极远距离
3.754568E-6 低风险 0.46
CDM_260907-025005-304906-769721
2026-09-07T
02:50:16+0000
1.820 km
极远距离
2.512313E-6 低风险 0.43
CDM_260905-183105-112406-769721
2026-09-05T
18:31:11+0000
2.380 km
极远距离
1.894277E-6 低风险 0.41
CDM_260906-230605-233606-769721
2026-09-06T
23:06:03+0000
2.461 km
极远距离
1.591755E-6 低风险 0.39
CDM_260906-095105-017006-769721
2026-09-06T
09:51:05+0000
2.633 km
极远距离
1.573641E-6 低风险 0.39
CDM_260907-060904-779306-769721
2026-09-07T
06:09:04+0000
2.837 km
极远距离
1.320367E-6 低风险 0.37
CDM_260907-010705-283506-769722
2026-09-07T
01:07:01+0000
2.857 km
极远距离
1.110589E-6 低风险 0.36